Погода Радужный

Погода Радужный : погода сейчас, прогноз погоды и архив. Всё, что Вы хотите узнать о погоде Радужный!

Поиск расширенной информации на нашем сайте:

Другие новости

Новости СМИ2

Главная страница сайта

Новости сайта

03.07.2017

Напоминаем, что на нашем специализированном сайте Метеоцентр.Азия вы можете получить высокодетализированные автоматические прогнозы погоды по пунктам России, СНГ и мира в авиационном формате (включающие направление и скорость ветра, видимость, явления погоды, количество и форму облачности, нижнюю и верхнюю границу облачности).


Погода Радужный - сегодня

Время (UTC), дата Ветер
(°,м/с) 
Видим.   Явления Облачность Т
(°С)
Тd
(°С)
f(%) Тe
(°С)
Pmin
(гПа)
dP
(гПа)
Po
(мм)
O2
(г/м3)
Тmin Tmax R s Состояние
почвы
15 16.06.18 320 (СЗ) 10 км    9/8 570 м кучево-дожд., средняя, верхняя 
[Cb cap|Ac trans|Ci fib]
+16.7 +12.3 75 +22  1006  748  282    +23.9  0.0     
18 16.06.18 290 (З) 10 км    8/4 600 м средняя 
[Sc|Ac trans]
+13.1 +11.8 92 +18  1005.3  -0.8  748  285           
21 16.06.18 030 (СВ) 10 км    4/0 средняя 
[Ac trans]
+13.6 +12.3 92 +18  1003.1  -2.1  746  284           
00 17.06.18 080 (В) 10 км    3/0 средняя 
[Ac trans]
+17.2 +11.8 71 +22  1002  -1  746  280           
03 17.06.18 080 (В) 4000 м  слаб. ливневой дождь  10/8 210 м кучево-дожд., средняя, верхняя 
[Cb cap|Ac trans|Ci fib]
+15.2 +13.7 91 +23  1001.7  -0.4  745  282  +12.7       
18 17.06.18 090 (В) 10 км    3/0 средняя 
[Ac trans]
+12.7 +7.7 72 +13  1007.3  0.1  749  287           
21 17.06.18 050 (СВ) 10 км    3/0 верхняя 
[Ci fib]
+11.7 +8.8 82 +12  1006.4  -1  749  288           
00 18.06.18 060 (СВ) 10 км    9/4 300 м кучево-дожд., средняя, верхняя 
[Cb cap|Ac trans|Ci fib]
+13.4 +9.4 77 +14  1005.4  -0.9  748  286           
03 18.06.18 070 (В) 10 км    9/4 600 м средняя, верхняя 
[Sc|Ac trans|Ci fib]
+16.4 +10 66 +18  1004.2  -1.1  747  282  +11.6         
06 18.06.18 090 (В) 10 км    10/8 570 м кучево-дожд., средняя 
[Cb cap|Ac und]
+18.5 +9.7 56 +20  1003.3  -0.9  746  280           
12 18.06.18 080 (В) 10 км    8/4 300 м кучево-дожд., верхняя 
[Cb cap|Ci fib]
+20.9 +11.9 56 +25  1001.7  -1  745  277           
18 18.06.18 330 (СЗ) 10 км    8/0 средняя, верхняя 
[Ac trans|Ci fib]
+13.2 +12.2 94 +18  1001.5  -0.3  745  284           
21 18.06.18 120 (ЮВ) 10 км    10/4 600 м средняя 
[Sc|Ac und]
+13.9 +12.5 91 +19  1000.4  -1.1  744  283           
03 19.06.18 тихо ()   10 км  {дождь}  9/4 600 м средняя 
[Sc|Ac trans]
+13.5 +12.2 92 +18  998.8  -0.7  743  283  +12.3       
06 19.06.18 тихо ()   10 км    9/4 600 м средняя, верхняя 
[Sc|Ac trans|Ci fib]
+15.5 +11.9 79 +19  998.1  -0.6  743  281           
09 19.06.18 180 (Ю) 10 км    4/3 600 м средняя 
[Cu med, cong|Ac trans]
+19.6 +10.5 56 +23  997.5  -0.5  742  277           
12 19.06.18 220 (ЮЗ) 10 км    4/4 600 м 
[Cu med, cong]
+21.5 +10.4 49 +23  997.3  -0.2  742  275           
18 19.06.18 тихо ()   10 км    10/0 средняя, верхняя 
[Ac trans|Ci fib]
+12.7 +11.5 92 +16  996.7  -0.6  741  283           
21 19.06.18 290 (З) 10 км    3/0 средняя, верхняя 
[Ac trans|Ci fib]
+10.6 +9.8 95 +13  995.5  -1.2  741  285           
00 20.06.18 330 (СЗ) 10 км    10/3 1000 м средняя, верхняя 
[Cu hum|Ac trans|Ci fib]
+13.6 +12.8 95 +20  993.9  -1.6  739  281           
03 20.06.18 340 (С) 10 км    10/0 средняя, верхняя 
[Ac trans|Cs]
+17.4 +13.4 77 +24  991.7  -2.1  738  277  +10.3         
15 20.06.18 310 (СЗ) 10 км    10/10 660 м 
[Sc]
+17.2 +14.3 83 +26  985.6  0.2  733  275    +20  10     
03 21.06.18 250 (З) 6-10{13}  4000 м  слаб. ливневой дождь  10/10 300 м кучево-дожд. 
[Cb cap]
+13.9 +11.9 88 +17  986.4  1.5  734  279  +13.5    25     
09 21.06.18 240 (ЮЗ) 3{11}  10 км    10/4 300 м кучево-дожд., средняя, верхняя 
[Cb cap|Ac trans|Ci fib]
+21.4 +11.3 53 +25  989.6  1.2  736  273           
15 21.06.18 160 (Ю) 2{13}  4000 м  слаб. ливневой дождь  10/10 270 м кучево-дожд. 
[Cb cap]
+15.6 +14 90 +23  991.9  1.8  738  278    +23.1     
Время (UTC), дата Ветер
(°,м/с) 
Видим.   Явления Облачность Т
(°С)
Тd
(°С)
f(%) Тe
(°С)
Pmin
(гПа)
dP
(гПа)
Po
(мм)
O2
(г/м3)
Тmin Tmax R s Состояние
почвы

Для получения пояснительной информации подведите курсор к названию столбца.

ПОГОДА Радужный - архив

Всё, что Вы хотите узнать о погоде Радужный - удобно и подробно!

Выберите нужную дату (начиная с 1 января 2015* года) и нажмите кнопку "Найти".
Будут отображены архивные сводки погоды по пункту Радужный, начиная с указанной даты.


Отображать данные в формате CSV (для использования в таблицах Excel)


Внимание! Наш архив погоды предназначен исключительно для личного некоммерческого использования в познавательных целях. Если Вам необходимы официальные справки о состоянии погоды (для производственных, юридических, коммерческих и т.п. целей), обращайтесь в органы Росгидромета.

*Примечание: данная дата относится к архиву по метеостанциям СССР (Россия, СНГ, Балтия).
Архив по метеостанциям Зарубежной Европы и Азии (кроме Китая) хранится 10 дней, по другим регионам земного шара (Китай, Африка, Америка, Австралия, Океания) - 1 день.

Радужный - район местоположения метеостанции


Название, широта, долгота, высота метеостанции:
Радужный 62.1°ш. 77.3°д. 73 м над ур. моря [Российская Федерация]

Дополнительная информация

В oтличие oт бoльшинства пoгoдных сайтoв мы публикуем пoдрoбную метеoинфoрмацию в детальнoм прoфессиoнальнoм фoрмате.

Характеристики температуры и влажнoсти вoздуха измеряются на высoте 2 м в тени вдали oт зданий и деревьев.
Скoрoсть ветра измеряется на высoте 10 м (на урoвне рoста челoвека скoрoсть ветра ниже в 1.5-2 раза). Если метеoстанция нахoдится в гoрoде или в лесу, тo скoрoсть ветра занижена на 2-4 м/с пo сравнению с oткрытым местoм. Скoрoсть ветра над акватoриями крупных рек и oзёр, а также на вершинах хoлмoв на 2-5 м/с выше, чем в oбычных услoвиях.
Атмoсфернoе давление в разных тoчках местнoсти мoжет значительнo oтличаться oт давления на метеoстанции, в зависимoсти oт услoвий рельефа (при пoдъёме на 10 м давление пoнижается примернo на 1 мм рт.ст.).